St. Augustine, FL

1:45 AM EST on January 24, 2018 (GMT -0500)
Saint Augustine

Weather History for KSGJ - January, 2012

Change the Weather History Date:

Sunday, January 15, 2012

  Actual Average Record
Temperature  
Mean Temperature 50 °F -  
Max Temperature 64 °F 62 °F 83 °F (1989)
Min Temperature 37 °F 44 °F 27 °F (1982)
Degree Days  
Heating Degree Days 14    
Moisture  
Dew Point 33 °F    
Average Humidity 58    
Maximum Humidity 87    
Minimum Humidity 19    
Precipitation  
Precipitation 0.00 in - - ()
Sea Level Pressure  
Sea Level Pressure 30.43 in    
Wind  
Wind Speed 7 mph (WNW)    
Max Wind Speed 15 mph    
Max Gust Speed 17 mph    
Visibility 10 miles    
Events      
Averages and records for this station are not official NWS values.
T = Trace of Precipitation, MM = Missing Value Source: NWS Daily Summary

Daily Weather History Graph

Daily Weather History Graph

Search for Another Location

Airport or City:

Trip Planner

Search our weather history database for the weather conditions in past years. The results will help you decide how hot, cold, wet, or windy it might be!

Date:

Astronomy

Jan. 15, 2012 Rise Set
Actual Time 7:21 AM EST 5:47 PM EST
Civil Twilight 6:56 AM EST 6:13 PM EST
Nautical Twilight 6:26 AM EST 6:42 PM EST
Astronomical Twilight 5:57 AM EST 7:11 PM EST
Moon No Moon Rise 11:14 AM EST (1/15)
Length of Visible Light 11h 17m
Length of Day
10h 25m
Waning Gibbous, 58% of the Moon is Illuminated
Jan 15
Waning Gibbous
Jan 16
Last Quarter
Jan 23
New
Jan 30
First Quarter
Feb 7
Full

Hourly Weather History & Observations

Time (EST) Temp. Windchill Dew Point Humidity Pressure Visibility Wind Dir Wind Speed Gust Speed Precip Events Conditions
12:55 AM 39.2 °F 35.0 °F 28.4 °F 65% 30.43 in 10.0 mi WSW 5.8 mph - N/A   Clear
12:58 AM 39.9 °F 35.8 °F 28.9 °F 65% 30.35 in 10.0 mi WSW 5.8 mph - N/A   Clear
1:55 AM 37.4 °F 32.8 °F 30.2 °F 75% 30.43 in 10.0 mi WSW 5.8 mph - N/A   Clear
1:58 AM 37.9 °F 33.5 °F 30.0 °F 73% 30.36 in 10.0 mi WSW 5.8 mph - N/A   Clear
2:55 AM 37.4 °F 32.8 °F 30.2 °F 75% 30.43 in 10.0 mi WSW 5.8 mph - N/A   Clear
2:58 AM 37.9 °F 33.5 °F 30.9 °F 76% 30.36 in 10.0 mi WSW 5.8 mph - N/A   Clear
3:55 AM 37.4 °F 32.8 °F 30.2 °F 75% 30.43 in 10.0 mi WSW 5.8 mph - N/A   Clear
3:58 AM 37.9 °F 34.4 °F 30.9 °F 76% 30.36 in 10.0 mi WSW 4.6 mph - N/A   Clear
4:58 AM 37.9 °F 32.7 °F 32.0 °F 79% 30.36 in 10.0 mi WSW 6.9 mph - N/A   Clear
5:55 AM 37.4 °F 32.1 °F 33.8 °F 87% 30.43 in 10.0 mi WSW 6.9 mph - N/A   Clear
5:58 AM 37.9 °F 32.7 °F 33.1 °F 83% 30.38 in 10.0 mi WSW 6.9 mph - N/A   Clear
6:55 AM 39.2 °F 34.2 °F 33.8 °F 81% 30.43 in 10.0 mi WSW 6.9 mph - N/A   Clear
6:58 AM 39.0 °F 33.4 °F 34.0 °F 82% 30.39 in 10.0 mi WSW 8.1 mph - N/A   Clear
7:55 AM 39.2 °F 35.9 °F 35.6 °F 87% 30.43 in 10.0 mi West 4.6 mph - N/A   Clear
7:58 AM 41.0 °F 37.1 °F 36.0 °F 82% 30.42 in 10.0 mi West 5.8 mph - N/A   Clear
8:55 AM 46.4 °F 41.9 °F 37.4 °F 71% 30.43 in 10.0 mi West 9.2 mph - N/A   Clear
8:58 AM 46.9 °F - 37.0 °F 68% 30.44 in 10.0 mi West 6.9 mph - N/A   Clear
9:55 AM 51.8 °F - 35.6 °F 54% 30.43 in 10.0 mi WNW 8.1 mph - N/A   Clear
9:58 AM 52.0 °F - 36.0 °F 54% 30.47 in 10.0 mi NW 10.4 mph 17.3 mph N/A   Clear
10:55 AM 55.4 °F - 33.8 °F 44% 30.43 in 10.0 mi NNW 8.1 mph - N/A   Clear
11:55 AM 60.8 °F - 28.4 °F 29% 30.43 in 10.0 mi North 12.7 mph - N/A   Clear
11:58 AM 60.1 °F - 28.0 °F 30% 30.45 in 10.0 mi NNW 10.4 mph - N/A   Clear
12:58 PM 62.1 °F - 26.1 °F 25% 30.42 in 10.0 mi NNW 11.5 mph - N/A   Clear
1:55 PM 62.6 °F - 23.0 °F 22% 30.43 in 10.0 mi NW 15.0 mph - N/A   Clear
1:58 PM 63.0 °F - 23.0 °F 22% 30.40 in 10.0 mi NW 15.0 mph - N/A   Clear
2:55 PM 62.6 °F - 21.2 °F 20% 30.43 in 10.0 mi NW 13.8 mph - N/A   Clear
2:58 PM 64.0 °F - 21.9 °F 20% 30.40 in 10.0 mi NNW 13.8 mph - N/A   Clear
3:55 PM 64.4 °F - 21.2 °F 19% 30.43 in 10.0 mi NW 12.7 mph - N/A   Clear
3:58 PM 64.0 °F - 21.9 °F 20% 30.40 in 10.0 mi NW 13.8 mph - N/A   Clear
4:55 PM 62.6 °F - 24.8 °F 24% 30.43 in 10.0 mi North 9.2 mph - N/A   Clear
4:58 PM 61.0 °F - 34.0 °F 36% 30.42 in 10.0 mi NNE 8.1 mph - N/A   Clear
5:55 PM 55.4 °F - 39.2 °F 54% 30.43 in 10.0 mi North 3.5 mph - N/A   Clear
5:58 PM 55.9 °F - 39.0 °F 53% 30.44 in 10.0 mi Calm Calm - N/A   Clear
6:55 PM 51.8 °F - 39.2 °F 62% 30.43 in 10.0 mi Calm Calm - N/A   Clear
6:58 PM 51.1 °F - 39.0 °F 63% 30.45 in 10.0 mi Calm Calm - N/A   Clear
7:55 PM 46.4 °F - 37.4 °F 71% 30.43 in 10.0 mi Calm Calm - N/A   Clear
7:58 PM 46.9 °F - 37.9 °F 71% 30.47 in 10.0 mi Calm Calm - N/A   Clear
8:55 PM 46.4 °F - 37.4 °F 71% 30.43 in 10.0 mi Calm Calm - N/A   Clear
8:58 PM 46.9 °F - 37.9 °F 71% 30.48 in 10.0 mi NNW 3.5 mph - N/A   Clear
9:55 PM 48.2 °F - 37.4 °F 66% 30.43 in 10.0 mi North 3.5 mph - N/A   Clear
9:58 PM 48.9 °F - 37.9 °F 66% 30.48 in 10.0 mi NNW 3.5 mph - N/A   Clear
10:55 PM 51.8 °F - 39.2 °F 62% 30.43 in 10.0 mi NE 10.4 mph - N/A   Clear
10:58 PM 53.1 °F - 39.0 °F 59% 30.48 in 10.0 mi NE 11.5 mph - N/A   Clear
11:55 PM 53.6 °F - 39.2 °F 58% 30.43 in 10.0 mi NE 9.2 mph - N/A   Clear
11:58 PM 54.0 °F - 39.0 °F 57% 30.49 in 10.0 mi NE 9.2 mph - N/A   Clear